HJ3JCG-13 Weather Reports


time (UTC)temp
C
wind
direction
speed
KPH
gust
KPH
rain 1hr
cm
rain 24hr
cm
rain mn
cm
humidity
%
barometer
mb
20260505002514 14 60 8.0 0.0 0.00 0.00 0.00 75 1017.0
20260505001514 14 60 8.0 0.0 0.00 0.00 0.00 75 1017.0
20260505000513 14 60 8.0 0.0 0.00 0.00 0.00 75 1017.0
20260504235512 15 70 8.0 0.0 0.00 0.00 0.00 77 1017.0
20260504234512 15 70 8.0 0.0 0.00 0.00 0.00 77 1017.0
20260504233511 15 70 8.0 0.0 0.00 0.00 0.00 77 1017.0
20260504232511 14 110 4.8 6.4 0.00 0.00 0.00 72 1016.0
20260504231510 14 110 4.8 6.4 0.00 0.00 0.00 72 1016.0
20260504230510 14 110 4.8 6.4 0.00 0.00 0.00 72 1016.0
20260504225509 14 110 4.8 6.4 0.00 0.00 0.00 72 1016.0
20260504224509 16 70 8.0 0.0 0.00 0.00 0.00 68 1016.0
20260504223508 16 70 8.0 0.0 0.00 0.00 0.00 68 1016.0
20260504222507 15 122 4.8 8.0 0.00 0.00 0.00 71 1014.0
20260504221507 15 122 4.8 8.0 0.00 0.00 0.00 71 1015.0
20260504220506 15 122 4.8 8.0 0.00 0.00 0.00 73 1015.0
20260504215506 15 60 16.1 0.0 0.00 0.00 0.00 73 1015.0
20260504214505 15 60 16.1 0.0 0.00 0.00 0.00 73 1015.0
20260504213505 15 60 16.1 0.0 0.00 0.00 0.00 72 1014.0
20260504212504 15 60 16.1 0.0 0.00 0.00 0.00 72 1014.0
20260504211504 15 60 16.1 0.0 0.00 0.00 0.00 72 1014.0
20260504210503 15 60 16.1 0.0 0.00 0.00 0.00 70 1014.0
20260504205502 15 117 4.8 6.4 0.00 0.00 0.00 68 1014.0
20260504204502 15 117 4.8 6.4 0.00 0.00 0.00 68 1014.0
20260504203501 15 117 4.8 6.4 0.00 0.00 0.00 68 1014.0
20260504202501 15 100 4.8 6.4 0.00 0.00 0.00 68 1014.0
20260504201500 15 100 4.8 6.4 0.00 0.00 0.00 68 1014.0
20260504200500 15 100 4.8 6.4 0.00 0.00 0.00 71 1014.0
20260504195459 15 100 4.8 6.4 0.00 0.00 0.00 71 1014.0
20260504194459 15 120 8.0 0.0 0.00 0.00 0.00 78 1014.0
20260504193458 16 100 4.8 6.4 0.00 0.00 0.00 68 1014.0
20260504192457 17 120 4.8 9.7 0.00 0.00 0.00 69 1014.0
20260504191457 17 0 4.8 0.0 0.00 0.00 0.00 68 1014.0
20260504190456 17 0 4.8 0.0 0.00 0.00 0.00 68 1014.0
20260504185456 17 150 17.7 0.0 0.00 0.00 0.00 66 1014.0
20260504184455 17 150 17.7 0.0 0.00 0.00 0.00 66 1014.0
20260504183455 17 150 17.7 0.0 0.00 0.00 0.00 67 1014.0
20260504182454 17 150 17.7 0.0 0.00 0.00 0.00 67 1014.0
20260504181453 17 150 17.7 0.0 0.00 0.00 0.00 67 1014.0
20260504180453 17 120 9.7 0.0 0.00 0.00 0.00 66 1014.0
20260504175452 17 120 9.7 0.0 0.00 0.00 0.00 67 1014.0
20260504174452 17 120 9.7 0.0 0.00 0.00 0.00 69 1015.0
20260504173451 17 120 9.7 0.0 0.00 0.00 0.00 70 1015.0
20260504172450 17 120 9.7 0.0 0.00 0.00 0.00 71 1016.0
20260504171450 17 120 12.9 0.0 0.00 0.00 0.00 76 1016.0
20260504170449 17 120 12.9 0.0 0.00 0.00 0.00 76 1016.0
20260504160446 17 0 6.4 0.0 0.00 0.00 0.00 87 1016.0
20260504150443 17 0 1.6 0.0 0.00 0.00 0.00 99 1016.0
20260504140439 13 0 3.2 0.0 0.00 0.00 0.00 99 1017.0
20260504130436 11 360 4.8 0.0 0.00 0.00 0.00 99 1018.0
20260504110429 11 0 1.6 0.0 0.00 0.00 0.00 99 1018.0
20260504100426 11 0 1.6 0.0 0.00 0.00 0.00 99 1018.0
20260504081420 11 20 6.4 0.0 0.00 0.00 0.00 99 1018.0
20260504080419 11 30 6.4 0.0 0.00 0.00 0.00 99 1018.0
20260504050408 11 280 6.4 0.0 0.00 0.00 0.00 99 1020.0
20260504045408 11 280 6.4 0.0 0.00 0.00 0.00 99 1020.0
20260504044407 11 280 6.4 0.0 0.00 0.00 0.00 99 1020.0
20260504043407 11 280 6.4 0.0 0.00 0.00 0.00 99 1020.0
20260504042406 11 280 6.4 0.0 0.00 0.00 0.00 99 1020.0
20260504041405 11 280 6.4 0.0 0.00 0.00 0.00 99 1020.0
20260504040405 11 340 1.6 0.0 0.00 0.00 0.00 99 1020.0
20260504035404 12 340 1.6 0.0 0.00 0.00 0.00 10 1021.0
20260504034403 12 340 1.6 0.0 0.00 0.00 0.00 10 1021.0
20260504033403 12 340 1.6 0.0 0.00 0.00 0.00 10 1020.0
20260504032402 12 340 1.6 0.0 0.00 0.00 0.00 10 1020.0
20260504031402 12 0 3.2 0.0 0.00 0.00 0.00 10 1020.0
20260504030401 12 0 3.2 0.0 0.00 0.00 0.00 10 1020.0
20260504025400 12 0 3.2 0.0 0.00 0.00 0.00 10 1020.0
20260504024400 12 0 3.2 0.0 0.00 0.00 0.00 10 1020.0
20260504023359 12 0 3.2 0.0 0.00 0.00 0.00 98 1020.0
20260504022359 12 0 3.2 0.0 0.00 0.00 0.00 98 1019.0
20260504021358 12 0 3.2 0.0 0.00 0.00 0.00 98 1019.0
20260504020358 12 0 3.2 0.0 0.00 0.00 0.00 98 1019.0
20260504015357 12 0 3.2 0.0 0.00 0.00 0.00 98 1020.0
20260504014356 12 0 3.2 0.0 0.00 0.00 0.00 98 1019.0
20260504013355 12 0 3.2 0.0 0.00 0.00 0.00 96 1019.0
20260504012355 13 0 3.2 0.0 0.00 0.00 0.00 95 1018.0
20260504011354 13 0 3.2 0.0 0.00 0.00 0.00 94 1018.0
20260504010354 13 250 4.8 0.0 0.00 0.00 0.00 93 1018.0
20260504005353 13 250 4.8 0.0 0.00 0.00 0.00 93 1018.0
20260504004353 13 250 4.8 0.0 0.00 0.00 0.00 93 1018.0
20260504003352 13 250 4.8 0.0 0.00 0.00 0.00 93 1018.0